General Aviation Weather

Text Reports

Enter one or more of the following location identifiers separated by a space:

Zip Code, Four-Character ICAO or Three-Character IATA airport codes.

METAR - Aviation Routine Weather Report
KREO - Rome, Oregon
Updated at 8:52 PM GMT on November 28, 2014 (12:52 PM PST):
METAR KREO 282052Z AUTO 22023G35KT 18/M19 A2973 RMK AO1 PK WND 23039/2025 SLP051 T01831189 56021
TAF - Terminal Area Forecast
KREO - Rome, Oregon
Updated at 8:52 PM GMT on November 28, 2014 (12:52 PM PST):
No TAF is currently available for this location.
Decoded:
No decoded TAF is available.
PIREP - Pilot Weather Report
KREO - Rome, Oregon
Updated at 8:52 PM GMT on November 28, 2014 (12:52 PM PST):
No PIREP is currently available for this location.
AIRMET - Airmens Meteorological Information
KREO - Rome, Oregon
Updated at 8:52 PM GMT on November 28, 2014 (12:52 PM PST):
No AIRMET is currently available for this location.
SIGMET - Significant Meteorological Information
KREO - Rome, Oregon
Updated at 8:52 PM GMT on November 28, 2014 (12:52 PM PST):
No SIGMET is currently available for this location.
NOTAM - Notice to Airmen
KREO - Rome, Oregon
Updated at 8:52 PM GMT on November 28, 2014 (12:52 PM PST):
No NOTAM is currently available for this location.
Forecast Area
KREO - Rome, Oregon
Updated at 8:52 PM GMT on November 28, 2014 (12:52 PM PST):
No NOTAM is currently available for this location.
Aviation Weather Maps